ヒル彗星

P/2009 Q1 ( Hill )

English version
Home page
Updated on March 17, 2010

---------------------------------------------------------------------

・ プロフィール

発見日 2009年8月27日
発見光度 17.9等
発見者 R. E. Hill (Catalina Sky Survey)

・ 写真集

・ 軌道要素

Epoch 2009 June 18.0 TT = JDT 2455000.5
T 2009 July 4.07425 TT                                  MPC
q   2.7890468            (2000.0)            P               Q
n   0.07548482     Peri.  157.90354     +0.88412122     +0.46655256
a   5.5449331      Node   174.09056     -0.45727426     +0.87521648
e   0.4970098      Incl.   14.43139     -0.09607243     +0.12776865
P  13.06

・ 光度変化

        m1 = 12.5 + 5 logΔ + 10.0 log r

---------------------------------------------------------------------

軌道要素はM.P.E.C. 2009-S148に掲載されたものです。
光度グラフはComet for Windowsで作成したものです。

---------------------------------------------------------------------

Copyright(C) Seiichi Yoshida (comet@aerith.net). All rights reserved.